Location: M�con, France
(46.3049°N, 4.8371°E)
Time: 13:36:20
(UTC+02:00)

ISS - Visible Passes

Search period start: 20 October 2019 00:00
Search period end: 29 October 2019 23:00
Orbit: 411 x 421 km, 51.6° (Epoch: 20 October)

Date Brightness Start Highest point End Pass type
(mag) Time Alt. Az. Time Alt. Az. Time Alt. Az.
23 Oct -1.0 07:36:27 10° S 07:39:02 21° SE 07:41:37 10° E visible
24 Oct -0.7 06:49:00 10° SSE 06:50:37 13° SE 06:52:15 10° ESE visible
25 Oct -2.8 07:35:03 10° SW 07:38:17 48° SE 07:41:34 10° ENE visible
26 Oct -2.0 06:46:46 10° SSW 06:49:46 30° SE 06:52:46 10° ENE visible
27 Oct -1.5 05:00:39 18° SSE 05:01:17 19° SE 05:03:46 10° E visible
27 Oct -3.8 06:34:19 10° WSW 06:37:41 78° NNW 06:41:04 10° ENE visible
28 Oct -3.6 05:47:24 27° SW 05:49:03 71° SSE 05:52:24 10° ENE visible
29 Oct -2.4 05:01:05 38° ESE 05:01:05 38° ESE 05:03:40 10° ENE visible
29 Oct -3.2 06:34:00 10° W 06:37:12 44° NNW 06:40:27 10° ENE visible
